www.pogodaiklimat.ru

Погода и климат >> Архив погоды >> Австралия >> Shark Bay Airport


ПОГОДА в Shark Bay Airport

  • Прогноз погоды в Shark Bay Airport
  • Монитор погоды в Shark Bay Airport
  • Климат города

АРХИВ ПОГОДЫ в Shark Bay Airport

Время (UTC), дата Ветер
(напр.,м/с)
 
Видим.   Явления Облачность Т
(С)
Тd
(С)
f
(%)
Тe
(С)
Тes
(С)
Комфортность P
(гПа)
Po
(гПа)
Тmin
(С)
Tmax
(С)
R
(мм)
R24
(мм)
S
(см)
01 13.01 ЮВ 6 н/о н/о +34.3 +8.1 20 +33 +33 жарко 1005.1 1001.2 +21.1
03 13.01 В 7 н/о н/о +39.2 +14.3 23 +40 +40 очень
душно
1004.2 1000.3
04 13.01 В 8 н/о н/о +40.5 +14.6 22 +41 +41 опасность
перегрева
1003.4 999.5
06 13.01 В 7 н/о н/о +41.0 +12.0 18 +40 +40 очень
жарко
1002.1 998.2
07 13.01 В 7 н/о н/о +41.1 +11.2 17 +40 +40 очень
жарко
1001.5 997.6
09 13.01 ЮВ 6 н/о н/о +40.5 +11.6 18 +40 +40 очень
жарко
1000.9 997.0
10 13.01 Ю 9 н/о н/о +37.1 +12.5 23 +37 +37 очень
жарко
1001.3 997.4
12 13.01 Ю 6 н/о н/о +29.7 +14.7 40 +32 +32 душно 1002.7 998.8
13 13.01 Ю 5 н/о н/о +30.4 +12.3 33 +31 +31 жарко 1003.2 999.3 +42.5
15 13.01 ЮВ 4 н/о н/о +32.1 +17.2 41 +36 +36 очень
душно
1003.1 999.2
16 13.01 В 5 н/о н/о +32.7 +17.3 40 +36 +36 очень
душно
1003.0 999.1
18 13.01 ЮВ 4 н/о н/о +30.0 +19.4 53 +36 +36 очень
душно
1002.8 998.9
19 13.01 ЮВ 4 н/о н/о +28.7 +20.7 62 +36 +36 очень
душно
1002.6 998.7
21 13.01 ЮВ 4 н/о н/о +28.0 +20.8 65 +35 +35 очень
душно
1002.8 998.9
22 13.01 ЮВ 4 н/о н/о +28.4 +20.7 63 +35 +35 очень
душно
1003.2 999.3
00 14.01 ЮВ 6 н/о н/о +30.8 +21.0 56 +38 +38 очень
душно
1003.5 999.6
01 14.01 ЮВ 8 н/о н/о +30.4 +20.9 57 +38 +38 очень
душно
1003.5 999.6 +27.9
03 14.01 ЮВ 10 н/о н/о +30.6 +20.5 55 +38 +38 очень
душно
1003.5 999.6
04 14.01 ЮВ 8 н/о н/о +30.0 +20.0 55 +36 +36 очень
душно
1003.1 999.2
06 14.01 ЮЗ 7 н/о н/о +29.7 +20.5 58 +37 +37 очень
душно
1002.3 998.4
07 14.01 ЮЗ 6 н/о н/о +28.0 +21.1 66 +35 +35 очень
душно
1002.3 998.4
09 14.01 ЮЗ 5 н/о н/о +28.3 +20.8 64 +35 +35 очень
душно
1002.2 998.3
10 14.01 З 6 н/о н/о +28.0 +20.8 65 +35 +35 очень
душно
1002.6 998.7
12 14.01 З 5 н/о н/о +26.0 +21.4 76 +33 +33 очень
душно
1004.0 1000.1
13 14.01 З 6 н/о н/о +25.3 +21.4 79 +32 +32 очень
душно
1004.7 1000.8 +33.0
15 14.01 З 6 н/о н/о +24.4 +21.7 85 +31 +31 очень
душно
1005.2 1001.3
16 14.01 З 4 н/о н/о +24.3 +21.8 86 +31 +31 очень
душно
1005.2 1001.3
18 14.01 СЗ 4 н/о н/о +23.9 +21.6 87 +31 +31 очень
душно
1004.8 1000.9
19 14.01 СЗ 5 н/о н/о +24.2 +21.9 87 +31 +31 очень
душно
1004.9 1001.0
21 14.01 СЗ 5 н/о н/о +24.3 +22.0 87 +31 +31 очень
душно
1005.6 1001.7
22 14.01 СЗ 5 н/о н/о +24.2 +21.9 87 +31 +31 очень
душно
1006.0 1002.1
00 15.01 СЗ 6 н/о н/о +26.3 +21.7 76 +34 +34 очень
душно
1006.9 1003.0
01 15.01 СЗ 7 н/о н/о +29.3 +21.3 62 +37 +37 очень
душно
1007.2 1003.3 +24.0
03 15.01 З 8 н/о н/о +31.8 +21.0 53 +39 +39 очень
душно
1007.3 1003.4
04 15.01 СЗ 7 н/о н/о +33.8 +19.8 44 +40 +40 очень
душно
1006.7 1002.8
06 15.01 З 7 н/о н/о +33.1 +20.9 49 +40 +40 очень
душно
1006.5 1002.6
07 15.01 З 6 н/о н/о +33.4 +20.9 48 +41 +41 опасность
перегрева
1005.9 1002.0
09 15.01 З 6 н/о н/о +31.4 +21.0 54 +39 +39 очень
душно
1005.3 1001.4
10 15.01 З 6 н/о н/о +30.0 +20.5 57 +37 +37 очень
душно
1005.3 1001.4
12 15.01 З 6 н/о н/о +25.4 +21.3 78 +32 +32 очень
душно
1005.8 1001.9
13 15.01 З 4 н/о н/о +25.0 +21.1 79 +32 +32 очень
душно
1006.4 1002.5 +34.1
15 15.01 З 4 н/о н/о +24.3 +21.2 83 +31 +31 очень
душно
1006.7 1002.8
16 15.01 З 4 н/о н/о +24.4 +21.5 84 +31 +31 очень
душно
1006.4 1002.5
18 15.01 ЮЗ 1 н/о н/о +23.7 +20.6 83 +30 +30 очень
душно
1006.0 1002.1
19 15.01 З 3 н/о н/о +24.3 +20.6 80 +30 +30 очень
душно
1005.7 1001.8
21 15.01 З 3 н/о н/о +24.4 +20.1 77 +30 +30 очень
душно
1006.2 1002.3
22 15.01 З 3 н/о н/о +24.4 +20.1 77 +30 +30 очень
душно
1006.5 1002.6
00 16.01 З 4 н/о н/о +25.4 +20.4 74 +31 +31 очень
душно
1007.1 1003.2
01 16.01 З 3 н/о н/о +26.3 +20.2 69 +32 +32 очень
душно
1007.5 1003.6 +23.1
03 16.01 З 5 н/о н/о +30.4 +20.3 55 +37 +37 очень
душно
1007.2 1003.3
04 16.01 З 6 н/о н/о +30.0 +19.1 52 +35 +35 очень
душно
1007.0 1003.1
06 16.01 З 5 н/о н/о +31.5 +19.5 49 +37 +37 очень
душно
1006.6 1002.7
07 16.01 СЗ 5 н/о н/о +31.3 +19.6 50 +37 +37 очень
душно
1006.3 1002.4
09 16.01 З 7 н/о н/о +29.7 +20.3 57 +36 +36 очень
душно
1005.7 1001.8
10 16.01 ЮЗ 8 н/о н/о +27.0 +19.6 64 +33 +33 очень
душно
1005.8 1001.9
12 16.01 ЮЗ 7 н/о н/о +24.8 +19.8 74 +30 +30 душно 1006.9 1003.0
13 16.01 ЮЗ 6 н/о н/о +24.6 +19.4 73 +30 +30 очень
душно
1007.3 1003.4 +32.8
15 16.01 ЮЗ 6 н/о н/о +23.9 +19.0 74 +29 +29 душно 1007.8 1003.9
16 16.01 ЮЗ 7 н/о н/о +24.0 +19.3 75 +29 +29 душно 1007.3 1003.4
18 16.01 ЮЗ 5 н/о н/о +24.1 +19.6 76 +29 +29 душно 1006.8 1002.9
19 16.01 Ю 4 н/о н/о +24.1 +19.2 74 +29 +29 душно 1007.1 1003.2
21 16.01 Ю 2 н/о н/о +23.8 +18.7 73 +28 +28 душно 1007.1 1003.2
22 16.01 Ю 3 н/о н/о +23.7 +18.6 73 +28 +28 душно 1007.5 1003.6
00 17.01 ЮВ 3 н/о н/о +24.9 +18.4 67 +29 +29 душно 1008.2 1004.3
01 17.01 ЮЗ 4 н/о н/о +25.5 +18.7 66 +30 +30 душно 1008.3 1004.4 +23.7
03 17.01 Ю 4 н/о н/о +27.5 +18.5 58 +32 +32 очень
душно
1007.8 1003.9
04 17.01 Ю 4 н/о н/о +28.3 +18.7 56 +33 +33 очень
душно
1007.5 1003.6
06 17.01 ЮЗ 7 н/о н/о +29.7 +18.2 50 +34 +34 очень
душно
1006.9 1003.0
07 17.01 ЮЗ 6 н/о н/о +29.3 +18.7 53 +34 +34 очень
душно
1006.9 1003.0
09 17.01 Ю 8 н/о н/о +28.7 +19.6 58 +35 +35 очень
душно
1006.1 1002.2
10 17.01 Ю 8 н/о н/о +26.7 +18.8 62 +32 +32 очень
душно
1006.3 1002.4
12 17.01 Ю 8 н/о н/о +24.0 +18.4 71 +28 +28 душно 1007.5 1003.6
13 17.01 Ю 8 н/о н/о +23.7 +18.6 73 +28 +28 душно 1007.9 1004.0 +31.2
15 17.01 Ю 7 н/о н/о +23.2 +18.3 74 +29 +29 душно 1008.6 1004.7
16 17.01 Ю 7 н/о н/о +23.2 +18.3 74 +29 +29 душно 1008.3 1004.4
18 17.01 Ю 7 н/о н/о +23.4 +18.1 72 +29 +29 душно 1007.8 1003.9
19 17.01 Ю 5 н/о н/о +23.2 +17.9 72 +29 +29 душно 1008.3 1004.4
21 17.01 ЮВ 6 н/о н/о +22.7 +17.2 71 +28 +28 душно 1008.7 1004.8
22 17.01 ЮВ 7 н/о н/о +22.4 +17.1 72 +27 +27 душно 1009.1 1005.2
00 18.01 ЮВ 8 н/о н/о +23.6 +17.1 67 +27 +27 жарко 1009.6 1005.7
01 18.01 Ю 9 н/о н/о +25.1 +17.1 61 +29 +29 душно 1009.5 1005.6 +22.4
03 18.01 Ю 8 н/о н/о +29.0 +17.2 49 +33 +33 очень
душно
1008.9 1005.0
04 18.01 Ю 8 н/о н/о +30.1 +16.5 44 +33 +33 душно 1008.3 1004.4
06 18.01 Ю 10 н/о н/о +30.6 +15.8 41 +33 +33 душно 1007.6 1003.7
07 18.01 Ю 10 н/о н/о +30.5 +17.6 46 +35 +35 очень
душно
1007.2 1003.3
09 18.01 Ю 10 н/о н/о +28.4 +17.6 52 +33 +33 очень
душно
1006.7 1002.8
10 18.01 Ю 10 н/о н/о +26.5 +18.1 60 +31 +31 душно 1006.7 1002.8
12 18.01 Ю 8 н/о н/о +23.5 +18.4 73 +28 +28 душно 1008.0 1004.1
13 18.01 Ю 9 н/о н/о +22.9 +18.9 78 +29 +29 очень
душно
1008.6 1004.7 +32.2
15 18.01 Ю 9 н/о н/о +22.6 +19.2 81 +29 +29 очень
душно
1009.2 1005.3
16 18.01 Ю 8 н/о н/о +22.5 +19.1 81 +28 +28 душно 1008.6 1004.7
18 18.01 Ю 7 н/о н/о +22.2 +19.4 84 +28 +28 душно 1008.3 1004.4
19 18.01 Ю 6 н/о н/о +22.1 +19.1 83 +28 +28 душно 1008.0 1004.1
21 18.01 Ю 5 н/о н/о +21.9 +18.5 81 +27 +27 душно 1008.0 1004.1
22 18.01 Ю 5 н/о н/о +22.0 +18.4 80 +27 +27 душно 1008.4 1004.5
00 19.01 ЮВ 6 н/о н/о +26.8 +17.6 57 +31 +31 душно 1008.6 1004.7
01 19.01 Ю 5 н/о н/о +30.2 +17.6 47 +34 +34 очень
душно
1008.5 1004.6 +21.9
03 19.01 Ю 6 н/о н/о +34.3 +17.5 37 +38 +38 очень
душно
1007.4 1003.5
04 19.01 ЮЗ 8 н/о н/о +33.1 +16.5 37 +36 +36 очень
душно
1006.8 1002.9
06 19.01 ЮЗ 9 н/о н/о +35.4 +17.6 35 +39 +39 очень
душно
1005.7 1001.8
07 19.01 Ю 9 н/о н/о +33.8 +18.3 40 +38 +38 очень
душно
1005.4 1001.5
09 19.01 Ю 10 н/о н/о +31.4 +18.7 47 +36 +36 очень
душно
1004.3 1000.4
10 19.01 Ю 10 н/о н/о +30.5 +17.6 46 +35 +35 очень
душно
1004.6 1000.7
12 19.01 Ю 6 н/о н/о +26.0 +19.6 68 +32 +32 очень
душно
1005.6 1001.7
13 19.01 Ю 8 н/о н/о +25.1 +19.2 70 +30 +30 душно 1006.4 1002.5 +36.3
15 19.01 Ю 4 н/о н/о +24.7 +19.3 72 +30 +30 очень
душно
1007.6 1003.7
16 19.01 Ю 6 н/о н/о +24.3 +19.4 74 +29 +29 душно 1006.8 1002.9
18 19.01 Ю 6 н/о н/о +23.9 +20.0 79 +29 +29 душно 1006.4 1002.5
19 19.01 Ю 5 н/о н/о +23.8 +19.7 78 +29 +29 душно 1006.1 1002.2
21 19.01 Ю 5 н/о н/о +23.8 +19.7 78 +29 +29 душно 1006.1 1002.2
22 19.01 Ю 6 н/о н/о +23.8 +20.3 81 +29 +29 душно 1006.0 1002.1
00 20.01 Ю 6 н/о н/о +26.3 +20.4 70 +33 +33 очень
душно
1006.9 1003.0
01 20.01 Ю 5 н/о н/о +28.8 +20.0 59 +35 +35 очень
душно
1007.2 1003.3 +23.8

 

Местоположение метеостанции Shark Bay Airport (Западная Австралия, Австралия): широта -25.90 долгота 113.58 высота над уровнем моря 34 м.

В архиве по умолчанию представлена погода в Shark Bay Airport за последнюю неделю. Архивные данные за месяц целиком и за предыдущие месяцы, начиная с января 2011 года, Вы можете получить, выбрав интересующий диапазон дат из раскрывающегося списка и нажав кнопку "Ввод!".

Внимание! Время в таблицах - всемирное. Для получения местного времени необходимо прибавить поправку, которая в Shark Bay Airport равна 8 ч.

Смотрите также архив погоды в соседних городах и на ближайших метеорологических станциях:

Погода в Carnarvon Airport (Западная Австралия, Австралия) (114 км)
Погода в Geraldton Airport (Западная Австралия, Австралия) (341 км)
Погода в Learmonth Airport (Западная Австралия, Австралия) (411 км)
Погода в Morawa Airport (Западная Австралия, Австралия) (439 км)
Погода в Mount Magnet Aero (Западная Австралия, Австралия) (488 км)
Погода в Onslow Airport (Западная Австралия, Австралия) (496 км)
Погода в Meekatharra Airport (Западная Австралия, Австралия) (502 км)
Погода в Thevenard Island (Западная Австралия, Австралия) (516 км)
Погода в Paraburdoo Aero (Западная Австралия, Австралия) (520 км)
Погода в Rottnest Island Lighthouse (Западная Австралия, Австралия) (529 км)

Пояснения к столбцам:

Ветер - указаны скорость ветра в м/с - средняя за 10 мин, порывы в срок и между сроками (в фигурных скобках) и направление, откуда дует ветер: С - северный, СВ - северо-восточный, В - восточный, ЮВ - юго-восточный, Ю - южный, ЮЗ - юго-западный, З - западный, СЗ - северо-западный.
Видимость - горизонтальная дальность видимости в метрах или километрах. При видимости от 1 до 10 км при отсутствии осадков обычно наблюдается дымка, при ухудшении видимости до 1 км и менее - туман. В сухую погоду видимость может ухудшаться дымом, пылью или мглою.
Явления - указаны атмосферные явления, наблюдавшиеся в срок или в последний час перед сроком; фигурными скобками обозначены явления, наблюдавшиеся между сроками (за 1-3 часа до срока); квадратными скобками обозначены град или гололедные отложения с указанием их диаметра в мм.
Облачность - указаны через наклонную черту общая и нижняя облачность в баллах и высота нижней границы облаков в метрах; квадратными скобками обозначены формы облаков: Ci - перистые, Cs - перисто-слоистые, Cc - перисто-кучевые, Ac - высококучевые, As - высокослоистые, Sc - слоисто-кучевые, Ns - слоисто-дождевые, Cu - кучевые, Cb - кучево-дождевые. Подробнее классификацию облаков см. в Атласе облаков (PDF).
T - Температура воздуха - температура, измеренная на высоте 2 м над землей.
Td - Температура точки росы - температура, при понижении до которой содержащийся в воздухе водяной пар достигнет насыщения.
f - Относительная влажность воздуха - влажноcть воздуха, измеренная на высоте 2 м над землей.
Te - Эффективная температура - температура, которую ощущает одетый по сезону человек в тени. Характеристика душности погоды. При расчете учитывается влияние влажности воздуха и скорости ветра на теплоощущения человека.
Tes - Эффективная температура на солнце - температура, которую ощущает человек, с поправкой на солнечный нагрев. Характеристика знойности погоды. Зависит от высоты солнца над горизонтом, облачности и скорости ветра. Ночью, в пасмурную погоду, а также при ветре 12 м/с и более поправка равна нулю.
P - Атмосферное давление - приведенное к уровню моря атмосферное давление.
Po - Атмосферное давление - измеренное на уровне метеостанции атмосферное давление.
Tmin - Минимальная температура - минимум температуры воздуха на высоте 2 м над землей.
Tmax - Максимальная температура - максимум температуры воздуха на высоте 2 м над землей.
R - Количество осадков - Количество выпавших осадков за период времени, мм. При наведении курсора мыши на число - период времени, за который выпало указанное количество осадков.
R24 - Количество осадков - Количество выпавших осадков за 24 часа, мм.
S - Снежный покров - Высота снежного покрова, см. При наведении курсора мыши на число - состояние снежного покрова и степень покрытия местности в баллах.